Location: �clusier
(49.9361°N, 2.7869°E)
Time: 05:22:38
(UTC+00:00)

Cosmos 2016 Rocket - Pass Details

Date: 31 October 2021
Orbit: 947 x 1000 km, 83.0° (Epoch: 05 December)

Event Time Altitude Azimuth Distance (km) Brightness Sun altitude
Rises 18:35:22 0° 176° (S) 3,641 6.9 -21.0°
Reaches altitude 10° 18:37:53 10° 173° (S) 2,691 6.2 -21.4°
Maximum altitude 18:43:56 63° 94° (E) 1,063 3.9 -22.4°
Drops below altitude 10° 18:49:58 10° 15° (NNE) 2,684 6.2 -23.4°
Sets 18:52:29 0° 12° (NNE) 3,632 6.9 -23.8°
